Simultaneous Nadir Overpasses (SNOs) Predictions

Prediction of SNOs between METOP-B and NOAA-19 Satellite Orbit:

Table of predicted SNOs for the next 14.0 days since TLE Epoch: 12/13/2019
Index Date (METOP-B) Time (METOP-B) Lat,Lon (METOP-B) SZA (METOP-B ) Date (NOAA-19) Time (NOAA-19) Lat,Lon (NOAA-19) SZA (NOAA-19 ) Distance(km) Time Diff (sec)
1 12/17/2019 05:43:51 -79.77, -65.73 76.29 12/17/2019 05:42:40 -79.78, -67.56 76.41 36.01 71
2 12/17/2019 06:34:35 79.67, 100.69 103.56 12/17/2019 06:33:40 79.67, 100.81 103.56 2.51 55
3 12/17/2019 07:25:16 -79.66, -92.02 76.45 12/17/2019 07:24:37 -79.68, -91.96 76.44 1.98 39
4 12/17/2019 08:15:57 79.66, 75.24 103.55 12/17/2019 08:15:41 79.68, 75.22 103.57 2.92 16
5 12/17/2019 09:06:37 -79.68,-117.19 76.42 12/17/2019 09:06:37 -79.66,-117.25 76.44 3.12 0
6 12/17/2019 09:57:18 79.68, 50.08 103.58 12/17/2019 09:57:41 79.66, 49.93 103.56 3.27 23
7 12/17/2019 10:48:00 -79.64,-142.91 76.48 12/17/2019 10:48:38 -79.67,-142.84 76.44 3.23 38
8 12/17/2019 11:38:40 79.66, 24.63 103.56 12/17/2019 11:39:41 79.64, 24.64 103.56 2.34 61




NCC Satellite Simultaneous Nadir Overpasses (SNOs) Prediction Service
